Weather History for Fort Dodge, IA

Change the Weather History Date:

Friday, October 11, 2013

  Actual Average Record
Temperature  
Mean Temperature 63 °F -  
Max Temperature 71 °F 64 °F 85 °F (1960)
Min Temperature 53 °F 39 °F 20 °F (1987)
Degree Days  
Heating Degree Days 2    
Growing Degree Days 13 (Base 50)    
Moisture  
Dew Point 55 °F    
Average Humidity 73    
Maximum Humidity 88    
Minimum Humidity 59    
Precipitation  
Precipitation 0.09 in - - ()
Sea Level Pressure  
Sea Level Pressure 29.78 in    
Wind  
Wind Speed 13 mph (SSE)    
Max Wind Speed 22 mph    
Max Gust Speed 36 mph    
Visibility 10 miles    
Events      
Averages and records for this station are not official NWS values.
T = Trace of Precipitation, MM = Missing Value Source: NWS Daily Summary

Daily Weather History Graph

Daily Weather History Graph

Search for Another Location

Airport:

Trip Planner

Search our weather history database for the weather conditions in past years. The results will help you decide how hot, cold, wet, or windy it might be!

Date:

Astronomy

Oct. 11, 2013 Rise Set
Actual Time 7:25 AM CDT 6:40 PM CDT
Civil Twilight 6:57 AM CDT 7:08 PM CDT
Nautical Twilight 6:24 AM CDT 7:41 PM CDT
Astronomical Twilight 5:51 AM CDT 8:14 PM CDT
Moon 2:12 PM CDT (10/11) No Moon Set
Length of Visible Light 12h 11m
Length of Day
11h 15m
Waxing Crescent, 47% of the Moon is Illuminated
Oct 11
Waxing Crescent
Oct 11
First Quarter
Oct 18
Full
Oct 26
Last Quarter
Nov 3
New

Hourly Weather History & Observations

Time (CDT) Temp. Dew Point Humidity Pressure Visibility Wind Dir Wind Speed Gust Speed Precip Events Conditions
12:15 AM 64.4 °F 50.0 °F 59% 29.87 in 10.0 mi SSE 12.7 mph 21.9 mph N/A   Clear
12:35 AM 64.4 °F 50.0 °F 59% 29.88 in 10.0 mi South 12.7 mph 18.4 mph N/A   Clear
12:55 AM 64.4 °F 50.0 °F 59% 29.88 in 10.0 mi SSE 10.4 mph 16.1 mph N/A   Clear
1:15 AM 62.6 °F 50.0 °F 63% 29.88 in 10.0 mi SSE 13.8 mph 24.2 mph N/A   Clear
1:35 AM 62.6 °F 50.0 °F 63% 29.88 in 10.0 mi SSE 15.0 mph 20.7 mph N/A   Clear
1:55 AM - - N/A% - 10.0 mi North - - N/A   Clear
2:15 AM 62.6 °F 51.8 °F 68% 29.87 in 10.0 mi SSE 9.2 mph 16.1 mph N/A   Clear
2:35 AM 60.8 °F 50.0 °F 68% 29.86 in 10.0 mi SE 10.4 mph - N/A   Clear
2:55 AM 59.0 °F 50.0 °F 72% 29.87 in 10.0 mi SSE 6.9 mph - N/A   Clear
3:15 AM 57.2 °F 50.0 °F 77% 29.86 in 10.0 mi SE 8.1 mph - N/A   Clear
3:35 AM 57.2 °F 50.0 °F 77% 29.86 in 10.0 mi SE 8.1 mph - N/A   Clear
3:55 AM 57.2 °F 50.0 °F 77% 29.87 in 10.0 mi SSE 6.9 mph - N/A   Clear
4:15 AM 57.2 °F 50.0 °F 77% 29.87 in 10.0 mi SE 6.9 mph - N/A   Clear
4:35 AM 57.2 °F 51.8 °F 82% 29.87 in 10.0 mi SSE 8.1 mph - N/A   Clear
4:55 AM 57.2 °F 51.8 °F 82% 29.86 in 10.0 mi SE 8.1 mph - N/A   Clear
5:15 AM 57.2 °F 51.8 °F 82% 29.86 in 10.0 mi SSE 8.1 mph - N/A   Clear
5:35 AM 57.2 °F 51.8 °F 82% 29.85 in 10.0 mi SSE 9.2 mph - N/A   Clear
5:55 AM 57.2 °F 51.8 °F 82% 29.84 in 10.0 mi SSE 12.7 mph 21.9 mph N/A   Clear
6:15 AM 59.0 °F 51.8 °F 77% 29.83 in 10.0 mi SSE 10.4 mph 18.4 mph N/A   Clear
6:35 AM 59.0 °F 51.8 °F 77% 29.83 in 10.0 mi SE 9.2 mph - N/A   Clear
6:55 AM 57.2 °F 51.8 °F 82% 29.82 in 10.0 mi SE 12.7 mph - N/A   Clear
7:15 AM 55.4 °F 50.0 °F 82% 29.81 in 10.0 mi SE 11.5 mph - N/A   Clear
7:35 AM 55.4 °F 51.8 °F 88% 29.80 in 10.0 mi SE 10.4 mph - N/A   Clear
7:55 AM 55.4 °F 51.8 °F 88% 29.80 in 10.0 mi SE 9.2 mph 16.1 mph N/A   Clear
8:15 AM 57.2 °F 51.8 °F 82% 29.80 in 10.0 mi SSE 11.5 mph 17.3 mph N/A   Clear
8:35 AM 59.0 °F 51.8 °F 77% 29.80 in 10.0 mi SE 15.0 mph 19.6 mph N/A   Mostly Cloudy
8:55 AM 59.0 °F 51.8 °F 77% 29.79 in 10.0 mi SE 13.8 mph 19.6 mph N/A   Overcast
9:15 AM 60.8 °F 53.6 °F 77% 29.78 in 10.0 mi SSE 15.0 mph 23.0 mph N/A   Mostly Cloudy
9:35 AM 62.6 °F 53.6 °F 72% 29.77 in 10.0 mi SE 12.7 mph 26.5 mph N/A   Clear
9:55 AM 64.4 °F 53.6 °F 68% 29.77 in 10.0 mi SE 11.5 mph 21.9 mph N/A   Clear
10:15 AM 64.4 °F 55.4 °F 73% 29.76 in 10.0 mi SSE 12.7 mph 21.9 mph N/A   Clear
10:35 AM 64.4 °F 55.4 °F 73% 29.76 in 10.0 mi SSE 10.4 mph 21.9 mph N/A   Clear
10:55 AM 64.4 °F 55.4 °F 73% 29.77 in 10.0 mi SSE 13.8 mph 23.0 mph N/A   Clear
11:15 AM 64.4 °F 55.4 °F 73% 29.77 in 10.0 mi SSE 11.5 mph 20.7 mph N/A   Mostly Cloudy
11:35 AM 64.4 °F 55.4 °F 73% 29.76 in 10.0 mi SSE 13.8 mph 17.3 mph N/A   Overcast
11:55 AM 64.4 °F 55.4 °F 73% 29.75 in 10.0 mi SSE 12.7 mph 24.2 mph N/A   Mostly Cloudy
12:15 PM 64.4 °F 55.4 °F 73% 29.76 in 10.0 mi SSE 10.4 mph 21.9 mph N/A   Mostly Cloudy
12:35 PM 66.2 °F 57.2 °F 73% 29.75 in 10.0 mi SSE 11.5 mph 18.4 mph N/A   Overcast
12:55 PM 66.2 °F 57.2 °F 73% 29.74 in 10.0 mi SSE 13.8 mph 21.9 mph N/A   Overcast
1:15 PM 68.0 °F 57.2 °F 68% 29.73 in 10.0 mi South 12.7 mph 25.3 mph N/A   Overcast
1:35 PM 68.0 °F 57.2 °F 68% 29.72 in 10.0 mi South 19.6 mph 27.6 mph N/A   Overcast
1:55 PM 69.8 °F 57.2 °F 64% 29.71 in 10.0 mi SSE 18.4 mph 23.0 mph N/A   Overcast
2:15 PM 69.8 °F 57.2 °F 64% 29.70 in 10.0 mi South 17.3 mph 26.5 mph N/A   Overcast
2:35 PM 68.0 °F 57.2 °F 68% 29.70 in 10.0 mi South 18.4 mph 29.9 mph N/A   Overcast
2:55 PM 69.8 °F 57.2 °F 64% 29.70 in 10.0 mi South 15.0 mph 27.6 mph N/A   Overcast
3:15 PM 69.8 °F 57.2 °F 64% 29.70 in 10.0 mi South 18.4 mph 31.1 mph N/A   Overcast
3:35 PM 69.8 °F 57.2 °F 64% 29.70 in 10.0 mi South 19.6 mph 32.2 mph N/A   Overcast
3:55 PM 69.8 °F 59.0 °F 68% 29.70 in 10.0 mi South 17.3 mph 31.1 mph N/A   Overcast
4:15 PM 71.6 °F 59.0 °F 64% 29.70 in 10.0 mi South 15.0 mph 31.1 mph N/A   Overcast
4:35 PM 71.6 °F 59.0 °F 64% 29.70 in 10.0 mi South 18.4 mph 28.8 mph N/A   Scattered Clouds
4:55 PM 71.6 °F 60.8 °F 69% 29.70 in 10.0 mi South 20.7 mph 34.5 mph N/A   Partly Cloudy
5:15 PM 71.6 °F 59.0 °F 64% 29.70 in 10.0 mi South 21.9 mph 35.7 mph N/A   Partly Cloudy
5:35 PM 71.6 °F 59.0 °F 64% 29.71 in 10.0 mi South 19.6 mph 32.2 mph N/A   Partly Cloudy
5:55 PM 69.8 °F 59.0 °F 68% 29.71 in 10.0 mi South 17.3 mph 29.9 mph N/A   Partly Cloudy
6:15 PM 69.8 °F 59.0 °F 68% 29.72 in 10.0 mi South 18.4 mph 24.2 mph N/A   Clear
6:35 PM 69.8 °F 59.0 °F 68% 29.72 in 10.0 mi South 13.8 mph 26.5 mph N/A   Clear
6:55 PM 69.8 °F 59.0 °F 68% 29.72 in 10.0 mi South 15.0 mph 23.0 mph N/A   Clear
7:15 PM 68.0 °F 60.8 °F 78% 29.73 in 10.0 mi South 16.1 mph 21.9 mph N/A   Clear
7:35 PM 68.0 °F 60.8 °F 78% 29.74 in 10.0 mi South 13.8 mph 23.0 mph N/A   Clear
7:55 PM 68.0 °F 60.8 °F 78% 29.74 in 10.0 mi South 16.1 mph 23.0 mph N/A   Clear
8:15 PM 68.0 °F 60.8 °F 78% 29.74 in 10.0 mi South 16.1 mph 24.2 mph N/A   Clear
8:35 PM 66.2 °F 60.8 °F 83% 29.74 in 10.0 mi South 17.3 mph 25.3 mph N/A   Clear
8:55 PM 66.2 °F 60.8 °F 83% 29.74 in 10.0 mi South 18.4 mph 24.2 mph N/A   Clear
9:15 PM 66.2 °F 60.8 °F 83% 29.75 in 10.0 mi South 18.4 mph 25.3 mph N/A   Clear
9:35 PM 66.2 °F 60.8 °F 83% 29.73 in 10.0 mi South 16.1 mph 23.0 mph N/A   Partly Cloudy
9:55 PM 66.2 °F 60.8 °F 83% 29.79 in 9.0 mi WSW 16.1 mph 27.6 mph 0.03 in   Mostly Cloudy
10:15 PM 60.8 °F 53.6 °F 77% 29.79 in 10.0 mi WSW 8.1 mph - 0.06 in   Mostly Cloudy
10:35 PM 59.0 °F 51.8 °F 77% 29.80 in 10.0 mi West 13.8 mph - 0.06 in   Mostly Cloudy
10:55 PM 57.2 °F 50.0 °F 77% 29.81 in 10.0 mi West 12.7 mph 18.4 mph 0.06 in   Clear
11:15 PM 55.4 °F 48.2 °F 77% 29.82 in 10.0 mi West 10.4 mph - N/A   Clear
11:35 PM 55.4 °F 46.4 °F 72% 29.84 in 10.0 mi West 11.5 mph - N/A   Clear
11:55 PM 53.6 °F 46.4 °F 77% 29.85 in 10.0 mi West 4.6 mph - N/A   Clear